This is the latest recevied weather packets stored in our database for station/object DG4DAZ-6. If no packets are shown the sender has not sent any weather packets the latest 10 day(s).
| Time | Temp. | Humidity | Pressure | Rain* | Wind** | Luminosity | Snow |
|---|---|---|---|---|---|---|---|
| 1777210765 | 15.56° C | 41% | 1023.4 hPa | 0 mm | - | 571 W/m² | - |
| 1777210167 | 15.56° C | 43% | 1023.5 hPa | 0 mm | - | 660 W/m² | - |
| 1777209566 | 15.56° C | 43% | 1023.6 hPa | 0 mm | - | 747 W/m² | - |
| 1777208965 | 15.56° C | 42% | 1023.6 hPa | 0 mm | - | 751 W/m² | - |
| 1777208367 | 15.56° C | 43% | 1023.6 hPa | 0 mm | - | 760 W/m² | - |
| 1777207766 | 15.56° C | 44% | 1023.7 hPa | 0 mm | - | 129 W/m² | - |
| 1777207166 | 15° C | 46% | 1023.7 hPa | 0 mm | - | 793 W/m² | - |
| 1777206565 | 15° C | 45% | 1023.6 hPa | 0 mm | - | 824 W/m² | - |
| 1777205967 | 14.44° C | 48% | 1023.7 hPa | 0 mm | - | 832 W/m² | - |
| 1777205366 | 13.89° C | 44% | 1023.8 hPa | 0 mm | - | 515 W/m² | - |
| 1777204766 | 13.89° C | 47% | 1023.8 hPa | 0 mm | - | 542 W/m² | - |
| 1777204167 | 13.89° C | 44% | 1023.7 hPa | 0 mm | - | 702 W/m² | - |
| 1777203566 | 13.89° C | 48% | 1023.7 hPa | 0 mm | - | 675 W/m² | - |
| 1777202967 | 13.33° C | 45% | 1023.8 hPa | 0 mm | - | 786 W/m² | - |
| 1777202366 | 13.33° C | 49% | 1023.8 hPa | 0 mm | - | 764 W/m² | - |
| 1777201766 | 12.78° C | 49% | 1023.9 hPa | 0 mm | - | 780 W/m² | - |
| 1777201165 | 12.22° C | 49% | 1024 hPa | 0 mm | - | 343 W/m² | - |
| 1777200565 | 13.33° C | 48% | 1024.1 hPa | 0 mm | - | 645 W/m² | - |
| 1777199966 | 12.78° C | 49% | 1024 hPa | 0 mm | - | 648 W/m² | - |
| 1777199366 | 12.22° C | 50% | 1024.1 hPa | 0 mm | - | 711 W/m² | - |
| 1777198765 | 12.22° C | 51% | 1024.1 hPa | 0 mm | - | 749 W/m² | - |
| 1777198165 | 11.67° C | 51% | 1024.1 hPa | 0 mm | - | 700 W/m² | - |
| 1777197565 | 11.67° C | 51% | 1024.1 hPa | 0 mm | - | 786 W/m² | - |
| 1777196965 | 11.67° C | 49% | 1024.1 hPa | 0 mm | - | 649 W/m² | - |
| 1777196365 | 11.11° C | 51% | 1024.2 hPa | 0 mm | - | 656 W/m² | - |
* Rain latest hour (hover to see other rain measurements)
** Current wind speed in m/s (hover to see current wind gust speed)